Oakland, CA

3:16 AM PDT on August 27, 2016 (GMT -0700)
Metro Oakland International

Weather History for KOAK - November, 2011

Change the Weather History Date:

Tuesday, November 22, 2011

  Actual Average Record
Temperature  
Mean Temperature 57 °F 53 °F  
Max Temperature 67 °F 61 °F 77 °F (1959)
Min Temperature 46 °F 44 °F 37 °F (2004)
Degree Days  
Heating Degree Days 8 12  
Month to date heating degree days 179 215  
Since 1 July heating degree days 538 567  
Cooling Degree Days 0 0  
Month to date cooling degree days 0 0  
Year to date cooling degree days 152 137  
Growing Degree Days 7 (Base 50)    
Moisture  
Dew Point 44 °F    
Average Humidity 63    
Maximum Humidity 83    
Minimum Humidity 42    
Precipitation  
Precipitation 0.00 in 0.09 in 0.47 in (1979)
Month to date precipitation 1.21 1.80  
Year to date precipitation 15.71 16.50  
Since 1 July precipitation 2.90  
Sea Level Pressure  
Sea Level Pressure 30.21 in    
Wind  
Wind Speed 6 mph (SE)    
Max Wind Speed 16 mph    
Max Gust Speed 17 mph    
Visibility 10 miles    
Events      
T = Trace of Precipitation, MM = Missing Value Source: NWS Daily Summary

Daily Weather History Graph

Daily Weather History Graph

Search for Another Location

Airport or City:

Trip Planner

Search our weather history database for the weather conditions in past years. The results will help you decide how hot, cold, wet, or windy it might be!

Date:

Astronomy

Nov. 22, 2011 Rise Set
Actual Time 6:56 AM PST 4:53 PM PST
Civil Twilight 6:27 AM PST 5:21 PM PST
Nautical Twilight 5:55 AM PST 5:53 PM PST
Astronomical Twilight 5:24 AM PST 6:25 PM PST
Moon 3:55 AM PST (11/22) 2:54 PM PST (11/22)
Length of Visible Light 10h 54m
Length of Day
9h 57m
Waning Crescent, 9% of the Moon is Illuminated
Nov 22
Waning Crescent
Nov 24
New
Dec 2
First Quarter
Dec 10
Full
Dec 17
Last Quarter

Hourly Weather History & Observations

Time (PST) Temp. Dew Point Humidity Pressure Visibility Wind Dir Wind Speed Gust Speed Precip Events Conditions
12:53 AM 50.0 °F 44.1 °F 80% 30.27 in 10.0 mi ESE 6.9 mph - N/A   Partly Cloudy
1:53 AM 50.0 °F 43.0 °F 77% 30.29 in 10.0 mi Calm Calm - N/A   Partly Cloudy
2:53 AM 48.9 °F 43.0 °F 80% 30.28 in 10.0 mi SE 6.9 mph - N/A   Partly Cloudy
3:53 AM 48.2 °F 42.8 °F 82% 30.28 in 10.0 mi ESE 3.5 mph - N/A   Partly Cloudy
4:53 AM 48.9 °F 42.1 °F 77% 30.27 in 10.0 mi ESE 3.5 mph - N/A   Partly Cloudy
5:53 AM 48.9 °F 43.0 °F 80% 30.27 in 10.0 mi Calm Calm - N/A   Partly Cloudy
6:53 AM 48.9 °F 43.0 °F 80% 30.27 in 10.0 mi SE 9.2 mph - N/A   Mostly Cloudy
7:53 AM 48.6 °F 43.5 °F 83% 30.29 in 10.0 mi SE 8.1 mph - N/A   Mostly Cloudy
8:53 AM 54.3 °F 45.0 °F 71% 30.29 in 10.0 mi SE 11.5 mph - N/A   Mostly Cloudy
9:53 AM 55.4 °F 44.6 °F 67% 30.29 in 10.0 mi SE 12.7 mph - N/A   Mostly Cloudy
10:53 AM 57.4 °F 47.1 °F 69% 30.27 in 10.0 mi SSE 12.7 mph - N/A   Mostly Cloudy
11:53 AM 57.9 °F 47.1 °F 67% 30.25 in 10.0 mi SSE 9.2 mph - N/A   Mostly Cloudy
12:53 PM 60.6 °F 44.4 °F 55% 30.21 in 10.0 mi ESE 8.1 mph - N/A   Mostly Cloudy
1:53 PM 60.8 °F 44.6 °F 55% 30.19 in 10.0 mi SSE 3.5 mph - N/A   Mostly Cloudy
2:53 PM 66.7 °F 42.6 °F 42% 30.17 in 10.0 mi Calm Calm - N/A   Mostly Cloudy
3:53 PM 66.7 °F 44.1 °F 44% 30.16 in 10.0 mi Calm Calm - N/A   Mostly Cloudy
4:53 PM 60.8 °F 42.8 °F 52% 30.14 in 10.0 mi Calm Calm - N/A   Scattered Clouds
5:53 PM 57.9 °F 43.0 °F 58% 30.14 in 10.0 mi SW 5.8 mph - N/A   Partly Cloudy
6:53 PM 57.0 °F 45.0 °F 64% 30.14 in 10.0 mi SSW 6.9 mph - N/A   Clear
7:53 PM 55.4 °F 46.4 °F 72% 30.13 in 10.0 mi SW 4.6 mph - N/A   Partly Cloudy
8:53 PM 55.9 °F 45.0 °F 67% 30.14 in 10.0 mi ESE 3.5 mph - N/A   Partly Cloudy
9:53 PM 53.1 °F 43.0 °F 69% 30.13 in 10.0 mi SE 6.9 mph - N/A   Partly Cloudy
10:53 PM 51.1 °F 43.0 °F 74% 30.11 in 10.0 mi SE 8.1 mph - N/A   Mostly Cloudy
11:53 PM 52.0 °F 43.0 °F 71% 30.10 in 10.0 mi ESE 8.1 mph - N/A   Mostly Cloudy